Location: Newark
(35.8967°N, 14.4625°E)
Time: 19:49:07
(UTC+00:00)

N. Korean satellite - Pass Details

Date: 22 November 2019
Orbit: 455 x 506 km, 97.2° (Epoch: 12 December)

Event Time Altitude Azimuth Distance (km) Brightness Sun altitude
Rises 04:52:54 0° 10° (N) 2,600 10.2 -10.7°
Reaches altitude 10° 04:55:00 10° 10° (N) 1,706 9.3 -10.3°
Maximum altitude 04:58:41 85° 281° (W) 500 6.5 -9.6°
Drops below altitude 10° 05:02:16 10° 194° (SSW) 1,667 9.3 -8.9°
Sets 05:04:18 0° 194° (SSW) 2,533 10.3 -8.5°
